Regional Weather Roundup
Issued by NWS Memphis, TN

Home | Current Version | Previous Version | Text Only | Print | Product List | Glossary On
Versions: 1 2 3 4 5 6 7 8 9 10 11 12 13 14 15 16 17 18 19 20 21 22 23 24 25 26 27 28 29 30 31 32 33 34 35 36 37 38 39 40 41 42 43 44 45 46 47 48 49 50
000
ASUS44 KMEG 190510
RWRMEG
MEMPHIS CWA HOURLY WEATHER ROUNDUP
NATIONAL WEATHER SERVICE MEMPHIS TN
1200 AM CDT SAT AUG 19 2017

...WEST TENNESSEE...

CITY           SKY/WX    TMP DP  RH WIND       PRES   REMARKS
MEMPHIS INTL   FAIR      79  70  74 S3        29.97F
NWS MEMPHIS      N/A     73 N/A N/A MISG        N/A
JACKSON        FAIR      69  69 100 SW3       29.98F
COVINGTON      CLEAR     70  68  94 CALM      29.97F
SOMERVILLE     CLEAR     72  70  94 CALM      29.97F
BOLIVAR        CLEAR     70  68  94 CALM      29.98F
LEXINGTON      CLEAR     68  68 100 CALM      29.98S
SELMER         CLEAR     66  64  94 CALM      29.99S
SAVANNAH       CLOUDY    68  66  94 CALM      29.98F
DYERSBURG      FAIR      72  69  90 CALM      29.99R
UNION CITY     CLEAR     68  66  94 CALM      29.97S
PARIS          CLEAR     73  68  83 SW5       29.98R
HUNTINGDON     MOCLDY    70  68  94 CALM      29.98S


...EASTERN ARKANSAS...

CITY           SKY/WX    TMP DP  RH WIND       PRES   REMARKS
JONESBORO      FAIR      76  74  93 CALM      29.97R
WEST MEMPHIS   FAIR      73  73 100 S3        29.96F
BATESVILLE     FAIR      73  72  94 CALM      29.98R
NEWPORT        FAIR      75  73  93 CALM      29.96R
WALNUT RIDGE   FAIR      75  70  83 S5        29.96R
BLYTHEVILLE    FAIR      76  70  82 S5        29.97S
SEARCY         MOCLDY    76  74  93 SW6       29.97F
PINE BLUFF     FAIR      81  76  84 CALM      29.98R
MONTICELLO     FAIR      77  68  73 S5        29.97F


...NORTH MISSISSIPPI...

CITY           SKY/WX    TMP DP  RH WIND       PRES   REMARKS
TUPELO         FAIR      75  70  84 CALM      29.98F
OXFORD         FAIR      70  68  94 CALM      30.01S
BATESVILLE     FAIR      72  71  95 CALM      29.99S
TUNICA           N/A     73  73 100 CALM      29.98S
CLARKSDALE       N/A     77  77 100 NE3       29.98R
GREENWOOD      FAIR      78  77  96 S3        29.98F
COLUMBUS       FAIR      74  74 100 CALM      29.97F
STARKVILLE       N/A     73  72  94 CALM      30.00S FOG
GOLDEN TRIANGL FAIR      75  70  83 CALM        N/A


...SOUTHEAST MISSOURI...

CITY           SKY/WX    TMP DP  RH WIND       PRES   REMARKS
KENNETT        FAIR      73  72  94 CALM      29.95F
MALDEN         FAIR      73  68  83 S3        29.98S
WEST PLAINS    FAIR      73  69  87 SW5       30.00F
POPLAR BLUFF   FAIR      71  70  96 CALM      29.96S
CAPE GIRARDEAU FAIR      72  69  90 S5        29.96S


...NORTHWEST ALABAMA...

CITY           SKY/WX    TMP DP  RH WIND       PRES   REMARKS
MUSCLE SHOALS  FAIR      70  67  90 CALM      30.01S


...MIDDLE TENNESSEE...

CITY           SKY/WX    TMP DP  RH WIND       PRES   REMARKS
NASHVILLE      FAIR      72  67  84 S3        30.00S
CLARKSVILLE    FAIR      68  65  90 CALM      29.98F
COLUMBIA       CLEAR     68  68 100 CALM      29.98S


...WESTERN KENTUCKY...

CITY           SKY/WX    TMP DP  RH WIND       PRES   REMARKS
PADUCAH        FAIR      75  67  76 SW5       29.97R
FORT CAMPBELL  MOCLDY    72  67  84 SW5       29.98S


...CENTRAL ARKANSAS...

CITY           SKY/WX    TMP DP  RH WIND       PRES   REMARKS
LITTLE ROCK    TSTM      72  71  97 S6        30.01S


SKY/WX REPORTED AS FAIR MEANS FEW OR NO CLOUDS BELOW
12 THOUSAND FEET.




USA.gov is the U.S. government's official web portal to all federal, state and local government web resources and services.